Location: Il Ritiro
(43.4167°N, 13.1333°E)
Time: 00:59:47
(UTC+00:00)

Cosmos 2219 Rocket - Pass Details

Date: 05 July 2020
Orbit: 827 x 848 km, 71.0° (Epoch: 11 August)

Event Time Altitude Azimuth Distance (km) Brightness Sun altitude
Exits shadow 20:30:26 - 191° (S) 2,684 4.4 -14.2°
Reaches altitude 10° 20:31:08 10° 190° (S) 2,422 4.2 -14.3°
Maximum altitude 20:36:36 63° 110° (ESE) 926 2.2 -14.9°
Drops below altitude 10° 20:42:07 10° 31° (NNE) 2,447 4.9 -15.5°
Sets 20:44:35 0° 28° (NNE) 3,388 5.7 -15.7°
